Wind_Speed
7 6 5 5 4 3 4 4 4 5 5 6 7 8 8 9 9 9 10 10 10 9 9 9 9 8 7 5 5 5 4 4 4 4 3 4 4 4 3 3 3 3 3 2 3 3 2 3 3
9 9 8 7 5 5 4 4 4 5 6 6 7 8 8 9 9 9 10 10 10 10 9 10 9 8 7 6 4 5 4 4 4 4 4 4 4 3 2 3 3 3 3 3 3 3 2 3 4
11 10 10 8 7 5 4 4 5 5 6 7 8 8 9 9 9 9 10 10 10 10 10 9 9 7 7 6 5 5 5 4 4 3 4 4 4 3 3 3 3 3 3 3 3 3 3 3 4
12 12 11 10 8 7 6 6 6 6 6 8 8 8 9 9 9 9 10 10 10 10 10 9 8 6 6 6 6 5 4 4 3 3 3 4 5 4 3 4 3 4 4 3 4 4 3 4 4
14 13 12 11 9 8 8 7 7 6 7 9 8 8 9 9 9 10 10 10 10 10 10 9 7 6 6 6 6 5 5 4 4 3 4 4 4 4 3 4 4 5 4 4 4 4 4 5 5
16 14 13 12 10 9 9 8 8 6 7 8 8 8 9 9 10 10 10 10 10 9 9 9 8 7 6 6 6 5 5 5 5 5 4 4 4 4 4 5 5 4 4 5 5 5 5 5 5
17 15 15 14 12 10 10 9 9 9 8 8 8 9 9 9 9 10 10 10 10 9 8 8 8 7 6 5 5 5 5 6 6 6 4 4 5 4 4 4 4 4 4 5 5 5 5 6 6
17 17 16 14 12 11 10 10 10 10 10 9 9 10 10 10 10 10 10 10 10 9 8 8 8 7 6 6 6 6 5 6 6 7 6 6 5 5 5 5 5 5 5 5 5 5 5 6 6
18 18 16 14 13 13 12 12 12 12 11 10 9 10 10 10 10 10 10 10 9 9 9 8 8 7 7 7 7 6 6 6 7 7 7 7 6 6 6 6 6 5 5 6 6 6 6 6 7
19 18 16 15 15 15 14 14 13 12 13 11 10 10 11 11 11 11 10 10 9 9 9 8 8 7 6 6 7 7 6 6 7 7 6 7 7 7 6 6 6 6 6 6 7 6 7 7 7
20 19 18 17 17 16 16 15 14 13 13 12 11 11 12 12 12 11 10 9 9 9 9 8 8 8 7 7 7 7 7 7 7 7 7 7 8 7 7 7 7 7 6 6 7 7 7 7 7
21 19 19 18 19 18 17 16 16 15 14 14 13 12 12 12 12 11 11 10 10 10 9 9 9 9 8 8 7 8 8 7 7 6 6 7 8 8 7 8 7 7 7 6 6 7 7 8 7
21 20 20 20 20 19 18 17 16 15 16 16 15 13 12 13 13 12 11 11 10 10 10 10 9 10 10 9 9 9 8 8 7 7 7 8 8 7 7 7 7 7 8 8 8 8 8 8 8
22 21 21 21 21 20 20 19 18 17 18 17 15 14 13 13 13 12 12 11 11 11 11 10 10 10 10 11 10 10 10 9 9 8 7 8 8 8 8 9 8 8 8 9 9 9 9 9 9
22 22 21 21 21 21 22 20 19 18 18 17 16 15 14 13 13 13 12 11 11 11 11 11 11 11 11 11 12 11 10 10 9 8 8 8 8 8 9 9 9 9 10 10 10 10 10 10 10
23 22 21 21 22 23 23 21 20 20 19 18 17 16 15 14 13 13 13 12 11 11 11 11 11 11 11 11 12 12 11 10 10 9 9 9 9 9 9 9 10 10 11 11 11 10 10 10 11
23 22 21 21 22 23 24 22 21 21 21 20 19 18 16 15 14 14 14 13 12 12 11 12 11 12 12 13 13 13 12 11 10 9 10 9 9 10 10 10 10 11 12 12 12 11 11 12 12
22 23 22 21 22 24 25 23 21 22 22 21 21 20 18 17 16 15 14 14 14 13 13 12 12 13 13 14 14 13 13 12 11 10 11 10 11 11 11 11 11 12 12 12 12 12 12 12 13
24 24 23 22 23 25 25 24 22 22 22 22 21 21 19 18 17 16 15 15 15 15 14 13 13 14 13 14 14 13 12 13 13 12 12 12 11 11 11 11 11 12 12 12 11 12 13 13 13
24 23 22 22 24 25 26 25 24 23 22 22 22 21 19 18 18 17 17 17 16 16 15 15 15 14 14 14 13 13 12 13 13 14 13 13 13 12 13 12 12 12 12 12 13 13 14 14 15
24 23 23 23 25 26 26 25 24 23 23 23 22 21 20 18 18 17 17 17 16 16 16 16 16 16 15 14 14 13 13 14 14 14 14 14 14 15 14 13 13 13 13 13 13 14 14 15 16
23 23 24 25 26 26 26 26 24 23 23 23 22 22 20 19 19 18 18 19 18 17 17 17 17 17 16 16 15 15 15 14 15 15 15 15 15 15 16 15 15 14 14 14 14 14 15 16 16
23 24 25 25 26 27 26 26 24 24 23 23 23 22 21 21 20 20 20 20 19 18 18 18 19 19 18 17 17 17 16 15 16 16 16 16 16 16 16 16 16 15 15 15 15 15 16 17 17
24 25 25 26 26 27 25 26 24 23 23 23 23 23 22 21 21 21 21 20 20 20 20 19 20 19 18 18 18 18 18 18 17 17 17 17 17 16 16 16 15 15 15 16 16 17 18 18 18
24 25 26 25 26 25 24 25 24 23 23 24 23 23 22 22 21 22 22 20 21 21 21 20 19 18 18 18 18 18 18 18 17 17 17 17 17 17 17 16 16 16 17 17 17 18 19 20 20
24 25 26 26 26 24 23 24 23 23 23 23 23 24 23 22 22 23 22 22 21 20 21 20 19 19 18 18 18 18 19 19 19 19 18 19 18 17 18 18 17 17 17 18 19 20 20 21 22
24 25 24 26 26 25 25 24 23 22 23 23 22 23 22 22 22 22 23 23 22 21 20 20 19 19 19 18 18 18 19 20 20 20 19 19 19 18 19 18 18 18 19 19 19 20 20 21 22
25 25 26 27 27 26 25 23 21 22 23 23 22 21 21 21 21 21 22 23 23 22 22 21 20 19 18 18 18 18 18 19 20 20 20 19 19 18 19 19 19 19 19 19 19 19 20 20 19
25 26 27 27 27 27 25 23 21 21 21 22 22 22 21 21 22 22 23 23 22 22 21 21 21 20 19 19 19 19 19 19 20 20 20 20 20 19 18 18 18 19 19 19 19 20 20 19 19
26 26 26 27 26 26 26 23 22 21 21 21 21 22 22 21 21 21 21 21 21 21 20 20 21 20 20 20 20 20 19 20 20 20 20 20 20 20 19 19 19 20 20 20 20 20 20 20 20
Wind_Direction
246 249 255 260 269 281 302 319 336 353 349 345 350 350 349 349 348 344 340 341 339 341 340 337 340 341 341 346 357 356 356 1 4 4 1 348 340 333 316 307 309 305 296 289 287 274 262 258 259
246 248 251 259 268 272 289 304 318 339 344 339 339 339 342 341 339 336 333 334 333 334 334 333 336 335 338 345 357 357 357 356 357 355 350 343 334 328 317 302 301 306 302 282 275 273 264 250 256
248 248 253 259 265 275 284 287 304 318 331 331 328 331 334 333 334 333 331 330 329 330 331 331 335 332 336 343 350 354 354 352 351 346 340 335 324 326 306 294 295 302 293 281 273 279 281 273 271
246 246 250 255 263 269 274 279 291 303 318 323 323 321 325 328 331 331 331 330 328 328 331 329 333 332 331 336 338 341 351 353 346 343 334 319 315 316 307 306 301 301 295 288 280 289 278 276 270
244 245 250 255 261 264 268 277 287 303 312 316 319 319 322 325 329 329 330 329 330 330 326 327 328 327 324 324 322 326 334 344 336 335 323 314 315 314 312 310 303 301 296 294 292 293 277 273 271
242 245 250 255 257 257 264 277 286 294 307 311 312 313 316 321 325 327 330 329 329 329 325 324 322 319 316 316 318 313 320 325 320 314 313 304 303 304 300 294 294 299 297 298 291 285 276 275 271
242 246 249 251 253 253 260 267 276 284 288 295 301 304 310 317 320 322 325 325 327 327 323 325 320 315 312 310 309 311 309 312 313 307 297 290 289 286 288 286 289 294 294 291 286 284 286 283 277
240 244 245 248 253 252 257 262 270 275 281 284 292 298 304 312 315 315 317 319 323 324 320 324 321 318 318 313 307 307 306 313 314 307 301 293 287 280 279 290 294 292 291 292 285 278 283 282 276
239 241 243 246 249 249 254 260 270 276 279 280 286 296 303 307 309 310 311 314 319 322 319 321 320 316 315 314 306 301 304 309 309 304 297 291 287 285 283 286 287 282 286 289 287 281 280 282 278
238 238 239 241 243 245 251 255 263 273 278 280 283 291 301 302 304 308 308 311 313 316 317 317 315 313 309 307 304 294 296 305 303 300 292 287 284 286 287 283 278 275 277 280 282 281 277 278 275
239 237 237 239 241 243 246 251 259 269 275 277 280 285 294 300 301 301 301 300 304 309 310 309 307 305 303 301 301 295 294 294 298 297 292 289 281 281 287 283 277 275 276 275 278 275 275 272 269
240 237 237 239 243 243 246 252 259 266 271 276 280 282 289 299 300 299 297 298 299 301 304 299 299 301 301 300 298 295 295 293 291 291 292 289 281 280 283 286 283 274 275 279 279 275 272 273 275
239 237 237 239 243 244 246 253 259 263 270 279 281 281 288 294 295 293 291 295 293 295 298 296 296 297 298 298 296 292 289 285 282 284 283 283 281 280 281 282 279 273 273 276 276 276 277 279 278
240 240 241 242 244 246 248 254 260 264 268 274 277 279 283 289 288 288 290 294 290 290 290 290 292 293 292 289 292 287 285 278 278 281 278 277 274 272 273 274 271 271 274 276 273 272 275 277 278
242 241 240 242 244 247 250 252 258 261 264 269 273 276 278 285 286 285 288 292 289 285 285 287 288 288 290 287 284 282 281 277 277 279 277 273 269 266 266 264 264 268 270 273 274 275 276 278 281
242 242 241 242 245 248 250 251 255 257 262 266 270 274 275 282 284 284 286 285 281 280 279 280 282 283 284 290 289 277 272 272 272 272 273 272 270 270 267 265 265 268 272 274 275 274 273 276 279
241 242 242 243 248 249 252 252 252 257 262 265 268 271 273 278 278 278 279 278 277 275 275 277 279 282 284 284 288 278 270 267 265 266 268 270 271 271 270 270 269 267 271 274 272 271 269 272 275
242 243 243 244 249 251 254 253 252 257 260 264 266 268 271 274 274 273 274 274 273 274 273 273 276 279 284 287 286 278 268 267 266 266 268 269 270 271 271 273 272 269 272 272 271 268 269 269 272
242 243 245 246 249 252 253 253 254 257 258 261 262 265 268 269 270 271 273 272 269 269 271 270 273 277 283 286 285 282 270 269 266 264 265 268 270 273 275 273 271 271 274 274 273 270 271 271 270
243 245 247 247 248 251 253 254 255 257 259 260 262 262 263 266 268 269 269 271 269 267 269 271 274 277 279 283 283 281 272 267 264 261 262 265 269 274 274 273 273 273 275 276 275 272 270 270 270
245 248 250 249 248 252 255 254 253 254 256 258 259 260 260 264 269 268 268 270 270 267 268 269 272 274 276 279 279 277 272 266 262 261 261 264 266 270 273 272 271 272 273 275 272 271 271 272 272
248 250 252 251 250 251 255 255 252 254 255 257 259 261 263 265 269 269 267 266 267 268 269 268 271 274 275 277 277 274 272 269 265 263 263 263 267 270 271 271 269 268 271 274 272 272 273 273 272
248 249 251 252 253 253 255 258 254 253 256 258 259 261 266 267 268 269 267 263 264 267 270 271 273 272 272 275 275 272 271 273 270 268 265 265 266 269 269 267 266 268 271 272 272 271 272 274 273
247 248 251 253 253 253 255 256 256 256 256 255 256 259 262 265 267 267 266 264 265 269 271 273 272 270 271 274 274 271 271 272 268 268 266 264 266 269 269 265 264 266 269 272 271 273 272 273 274
247 248 251 252 252 254 255 254 257 258 256 256 255 258 262 262 266 267 265 263 264 266 266 270 271 270 272 274 274 271 270 269 266 266 266 266 267 267 267 265 266 267 268 270 271 274 274 273 274
248 248 251 253 254 256 256 257 259 259 258 259 260 259 260 262 265 267 265 262 265 265 264 267 270 269 270 272 274 270 270 267 266 266 268 268 269 270 269 266 266 268 271 272 275 276 275 274 274
246 248 251 253 255 257 258 260 260 259 261 260 259 258 258 260 263 264 263 263 264 265 266 268 268 268 267 269 273 269 267 267 268 269 269 269 268 270 271 268 268 271 274 276 278 279 274 274 274
244 245 246 249 253 258 261 263 263 262 263 261 258 259 261 262 262 264 264 262 263 265 267 267 267 266 265 267 270 269 268 267 268 269 268 268 267 268 270 270 271 274 277 278 278 279 277 278 278
242 244 245 248 254 258 262 263 263 264 264 262 259 260 263 263 264 267 266 263 262 263 264 265 266 266 267 270 269 269 271 268 270 268 266 266 266 267 269 271 271 274 276 276 276 275 276 277 277
242 244 245 249 253 259 261 261 263 263 262 263 262 261 263 263 266 268 268 266 265 263 262 264 265 268 268 270 269 272 271 270 269 267 264 264 265 266 267 270 272 274 276 276 277 277 277 278 278
Height
5880 5880 5881 5882 5883 5883 5882 5882 5882 5881 5881 5880 5879 5879 5878 5878 5878 5879 5877 5874 5874 5873 5873 5872 5871 5870 5869 5868 5868 5868 5868 5868 5868 5868 5868 5868 5868 5868 5868 5869 5869 5870 5870 5870 5871 5871 5872 5872 5873
5879 5880 5881 5882 5882 5882 5883 5882 5881 5881 5881 5880 5879 5879 5878 5877 5877 5876 5875 5874 5873 5873 5872 5871 5870 5869 5869 5868 5868 5867 5867 5867 5868 5868 5868 5868 5868 5867 5867 5868 5868 5869 5869 5870 5870 5870 5871 5872 5872
5878 5879 5880 5881 5880 5881 5882 5881 5881 5880 5880 5879 5879 5878 5878 5877 5876 5875 5875 5874 5873 5872 5871 5871 5870 5869 5868 5868 5867 5867 5867 5867 5867 5867 5867 5867 5867 5867 5867 5867 5867 5868 5868 5869 5869 5870 5870 5871 5871
5877 5878 5879 5879 5879 5880 5880 5880 5879 5879 5879 5878 5878 5877 5877 5876 5875 5874 5874 5873 5872 5871 5871 5870 5869 5868 5868 5867 5867 5867 5867 5867 5867 5867 5867 5867 5867 5867 5866 5866 5866 5867 5868 5868 5869 5869 5869 5870 5870
5875 5876 5877 5877 5878 5879 5878 5878 5878 5878 5878 5877 5877 5876 5876 5875 5874 5873 5873 5872 5871 5870 5870 5869 5868 5867 5867 5867 5866 5866 5866 5866 5866 5866 5866 5866 5866 5866 5866 5866 5866 5866 5867 5867 5868 5868 5868 5869 5869
5873 5874 5875 5875 5876 5877 5877 5876 5877 5877 5877 5876 5876 5876 5875 5874 5873 5873 5872 5871 5870 5869 5869 5868 5867 5866 5866 5866 5866 5866 5866 5866 5866 5865 5865 5865 5865 5865 5865 5865 5865 5865 5866 5866 5867 5867 5868 5867 5868
5871 5871 5872 5873 5874 5875 5875 5874 5875 5875 5875 5875 5875 5875 5874 5873 5872 5871 5871 5870 5869 5868 5868 5867 5866 5866 5865 5865 5865 5865 5865 5865 5865 5865 5864 5864 5864 5864 5864 5864 5864 5864 5865 5865 5865 5865 5866 5866 5867
5867 5869 5869 5871 5872 5873 5873 5872 5873 5873 5874 5874 5873 5873 5873 5872 5871 5870 5870 5869 5868 5867 5866 5866 5865 5865 5864 5864 5864 5864 5864 5864 5864 5863 5863 5863 5863 5863 5863 5863 5863 5863 5863 5863 5863 5864 5864 5865 5865
5864 5867 5867 5868 5869 5870 5870 5870 5871 5872 5872 5871 5871 5871 5871 5871 5870 5869 5868 5868 5867 5866 5865 5865 5864 5864 5863 5863 5863 5863 5862 5862 5862 5862 5862 5861 5861 5861 5862 5862 5862 5862 5862 5862 5862 5862 5863 5863 5863
5861 5863 5865 5866 5866 5867 5867 5868 5868 5869 5870 5869 5869 5869 5869 5869 5868 5867 5866 5866 5865 5864 5864 5863 5863 5863 5862 5861 5861 5861 5861 5861 5861 5860 5860 5860 5860 5860 5860 5860 5860 5860 5860 5861 5861 5861 5861 5861 5862
5857 5860 5862 5863 5863 5864 5865 5866 5866 5867 5868 5868 5867 5867 5867 5866 5866 5865 5864 5864 5863 5862 5862 5862 5861 5861 5861 5860 5860 5860 5860 5859 5859 5859 5859 5859 5859 5859 5859 5859 5858 5859 5859 5859 5859 5859 5859 5860 5860
5854 5856 5858 5859 5860 5861 5862 5863 5864 5864 5865 5865 5865 5864 5864 5864 5863 5862 5862 5862 5861 5860 5860 5860 5860 5859 5859 5859 5858 5858 5858 5858 5858 5858 5857 5857 5857 5857 5857 5857 5857 5857 5857 5857 5857 5858 5858 5858 5858
5850 5853 5854 5856 5856 5858 5859 5860 5861 5861 5861 5862 5862 5861 5861 5861 5861 5860 5860 5860 5859 5858 5858 5858 5858 5857 5857 5857 5857 5857 5856 5856 5856 5856 5856 5855 5856 5856 5856 5855 5855 5855 5855 5856 5856 5856 5856 5856 5856
5846 5848 5850 5852 5853 5854 5855 5856 5857 5858 5858 5858 5858 5858 5858 5858 5858 5858 5857 5857 5857 5856 5856 5855 5855 5855 5855 5855 5855 5854 5854 5854 5854 5854 5854 5854 5854 5854 5853 5853 5853 5853 5854 5854 5854 5854 5854 5854 5854
5842 5845 5847 5849 5850 5850 5851 5853 5854 5855 5855 5855 5855 5855 5856 5856 5855 5855 5855 5854 5854 5854 5853 5853 5853 5853 5853 5852 5852 5852 5852 5852 5852 5852 5852 5852 5852 5852 5852 5852 5851 5851 5851 5851 5851 5851 5852 5852 5852
5839 5841 5844 5845 5846 5846 5848 5850 5850 5850 5851 5851 5852 5852 5852 5853 5852 5852 5852 5852 5851 5851 5851 5851 5851 5851 5850 5850 5850 5850 5850 5850 5850 5850 5850 5849 5849 5850 5850 5850 5849 5849 5848 5848 5849 5849 5850 5850 5850
5834 5837 5839 5841 5842 5842 5843 5845 5847 5846 5847 5848 5848 5849 5849 5849 5849 5849 5849 5849 5848 5848 5848 5848 5848 5848 5848 5848 5847 5847 5847 5847 5847 5847 5847 5847 5847 5847 5847 5847 5847 5847 5846 5846 5847 5847 5847 5847 5848
5831 5832 5835 5837 5837 5837 5838 5840 5842 5842 5843 5843 5844 5845 5845 5845 5846 5846 5846 5846 5845 5845 5845 5845 5845 5845 5845 5845 5844 5844 5844 5844 5844 5845 5845 5845 5845 5844 5844 5844 5844 5844 5844 5844 5844 5844 5844 5844 5845
5826 5828 5830 5832 5832 5833 5834 5835 5837 5838 5838 5839 5840 5841 5841 5842 5842 5842 5842 5842 5842 5842 5842 5842 5842 5842 5842 5841 5841 5841 5841 5842 5842 5842 5842 5842 5842 5841 5841 5841 5841 5841 5841 5841 5841 5841 5841 5841 5842
5821 5823 5826 5828 5827 5828 5829 5830 5832 5833 5834 5835 5835 5836 5837 5838 5838 5838 5838 5838 5838 5839 5839 5838 5838 5838 5839 5838 5838 5838 5838 5839 5839 5839 5839 5839 5839 5838 5838 5838 5838 5838 5838 5837 5837 5838 5838 5838 5838
5817 5819 5821 5822 5822 5822 5824 5825 5827 5829 5829 5830 5831 5831 5832 5833 5833 5833 5834 5834 5834 5834 5834 5835 5835 5835 5835 5835 5835 5835 5835 5835 5835 5835 5835 5835 5835 5835 5835 5835 5834 5834 5834 5834 5834 5834 5834 5834 5834
5812 5814 5814 5815 5816 5817 5819 5819 5822 5823 5824 5825 5826 5827 5827 5828 5829 5829 5829 5829 5830 5830 5830 5830 5830 5831 5831 5831 5831 5832 5832 5832 5832 5832 5832 5832 5832 5832 5831 5831 5831 5830 5831 5830 5830 5830 5830 5830 5830
5807 5807 5808 5810 5810 5812 5813 5813 5817 5818 5819 5820 5821 5822 5823 5823 5824 5824 5824 5825 5825 5826 5826 5826 5826 5826 5827 5827 5827 5827 5828 5828 5828 5828 5828 5828 5828 5828 5828 5827 5827 5827 5827 5826 5826 5826 5826 5826 5826
5801 5802 5803 5804 5805 5806 5809 5809 5810 5812 5814 5815 5816 5817 5818 5818 5819 5819 5819 5820 5821 5821 5821 5821 5821 5821 5822 5822 5822 5822 5822 5823 5823 5823 5824 5824 5824 5824 5823 5823 5823 5823 5823 5823 5822 5822 5822 5822 5822
5795 5797 5798 5798 5799 5801 5803 5803 5806 5807 5809 5810 5811 5812 5812 5813 5813 5814 5814 5815 5815 5816 5816 5816 5816 5816 5816 5817 5816 5816 5817 5817 5818 5819 5819 5819 5819 5819 5819 5818 5818 5819 5819 5818 5818 5817 5817 5816 5816
5790 5792 5793 5794 5795 5796 5798 5798 5801 5802 5803 5804 5805 5806 5807 5808 5808 5808 5809 5809 5810 5810 5811 5810 5811 5811 5811 5811 5811 5811 5811 5812 5813 5814 5814 5815 5815 5814 5814 5813 5813 5814 5814 5814 5813 5812 5812 5811 5811
5784 5786 5789 5789 5790 5791 5792 5794 5796 5797 5797 5799 5800 5801 5802 5803 5803 5803 5803 5804 5804 5805 5805 5805 5805 5805 5806 5806 5805 5806 5806 5807 5808 5808 5809 5809 5810 5810 5810 5809 5809 5809 5809 5809 5808 5807 5806 5806 5805
5779 5781 5782 5783 5784 5785 5787 5789 5791 5791 5792 5793 5795 5796 5797 5797 5797 5798 5797 5798 5799 5799 5800 5800 5800 5800 5800 5800 5800 5801 5801 5802 5802 5803 5804 5804 5804 5805 5805 5805 5804 5804 5804 5803 5802 5802 5801 5801 5800
5773 5775 5776 5778 5779 5780 5781 5785 5786 5786 5787 5788 5789 5790 5791 5792 5792 5793 5793 5793 5794 5794 5794 5794 5794 5794 5794 5795 5795 5796 5796 5796 5797 5797 5798 5798 5799 5799 5799 5799 5799 5799 5799 5798 5797 5796 5796 5795 5795
5767 5769 5771 5773 5774 5775 5776 5781 5780 5781 5782 5783 5784 5785 5786 5787 5787 5787 5787 5788 5788 5788 5788 5789 5789 5789 5789 5790 5790 5790 5790 5790 5791 5791 5792 5792 5793 5793 5794 5794 5794 5794 5793 5792 5791 5791 5790 5789 5789